| time (UTC) | temp F | wind direction | speed MPH | gust MPH | rain 1hr in | rain 24hr in | rain mn in | humidity % | barometer mb |
| 20260506101505 | 38 | 331 | 4.0 | 10.0 | 0.00 | 0.02 | 0.00 | 80 | 1008.5 |
| 20260506100009 | 39 | 341 | 5.0 | 12.0 | 0.00 | 0.02 | 0.00 | 80 | 1008.3 |
| 20260506094504 | 39 | 333 | 4.0 | 11.0 | 0.00 | 0.02 | 0.00 | 82 | 1008.6 |
| 20260506093008 | 40 | 329 | 4.0 | 10.0 | 0.00 | 0.02 | 0.00 | 81 | 1008.6 |
| 20260506091504 | 40 | 326 | 3.0 | 12.0 | 0.00 | 0.02 | 0.00 | 81 | 1008.3 |
| 20260506083008 | 42 | 339 | 4.0 | 8.0 | 0.00 | 0.02 | 0.00 | 74 | 1008.3 |
| 20260506081504 | 42 | 312 | 3.0 | 9.0 | 0.00 | 0.02 | 0.00 | 74 | 1008.2 |
| 20260506073008 | 42 | 312 | 3.0 | 6.0 | 0.00 | 0.02 | 0.00 | 78 | 1008.0 |
| 20260506071505 | 43 | 309 | 3.0 | 7.0 | 0.00 | 0.02 | 0.00 | 79 | 1007.8 |
| 20260506044505 | 48 | 263 | 2.0 | 8.0 | 0.00 | 0.02 | 0.00 | 66 | 1007.2 |
| 20260506041505 | 48 | 284 | 2.0 | 3.0 | 0.00 | 0.02 | 0.00 | 64 | 1007.3 |
| 20260506040040 | 48 | 285 | 2.0 | 4.0 | 0.00 | 0.02 | 0.00 | 65 | 1007.4 |
| 20260506033007 | 49 | 247 | 2.0 | 5.0 | 0.00 | 0.02 | 0.02 | 61 | 1007.2 |
| 20260506031504 | 49 | 244 | 2.0 | 5.0 | 0.00 | 0.02 | 0.02 | 60 | 1007.1 |
| 20260506030008 | 50 | 241 | 2.0 | 5.0 | 0.00 | 0.02 | 0.02 | 59 | 1007.4 |
| 20260506024504 | 51 | 234 | 3.0 | 7.0 | 0.00 | 0.02 | 0.02 | 57 | 1007.3 |
| 20260506023007 | 51 | 238 | 2.0 | 6.0 | 0.00 | 0.02 | 0.02 | 57 | 1007.3 |
| 20260506020007 | 52 | 238 | 3.0 | 8.0 | 0.00 | 0.02 | 0.02 | 55 | 1007.0 |
| 20260506014504 | 52 | 250 | 3.0 | 7.0 | 0.00 | 0.02 | 0.02 | 53 | 1006.9 |
| 20260506013007 | 53 | 224 | 3.0 | 9.0 | 0.00 | 0.02 | 0.02 | 52 | 1006.7 |
| 20260506011504 | 53 | 224 | 3.0 | 8.0 | 0.00 | 0.02 | 0.02 | 52 | 1006.6 |
| 20260506010007 | 53 | 227 | 3.0 | 7.0 | 0.00 | 0.02 | 0.02 | 52 | 1006.7 |
| 20260506003007 | 54 | 224 | 3.0 | 8.0 | 0.00 | 0.02 | 0.02 | 53 | 1006.5 |
| 20260506001505 | 54 | 225 | 3.0 | 7.0 | 0.00 | 0.02 | 0.02 | 54 | 1006.2 |
| 20260506000007 | 54 | 219 | 3.0 | 6.0 | 0.00 | 0.02 | 0.02 | 56 | 1006.1 |
| 20260505234505 | 54 | 218 | 3.0 | 9.0 | 0.00 | 0.02 | 0.02 | 56 | 1005.8 |
| 20260505233006 | 55 | 223 | 3.0 | 11.0 | 0.00 | 0.02 | 0.02 | 58 | 1005.8 |
| 20260505231505 | 55 | 224 | 4.0 | 10.0 | 0.00 | 0.02 | 0.02 | 59 | 1005.8 |
| 20260505230008 | 55 | 233 | 3.0 | 10.0 | 0.00 | 0.02 | 0.02 | 59 | 1005.9 |
| 20260505224504 | 55 | 227 | 4.0 | 11.0 | 0.00 | 0.02 | 0.02 | 59 | 1005.9 |
| 20260505223007 | 56 | 220 | 5.0 | 13.0 | 0.00 | 0.02 | 0.02 | 60 | 1005.9 |
| 20260505221505 | 56 | 218 | 3.0 | 8.0 | 0.00 | 0.02 | 0.02 | 64 | 1005.9 |
| 20260505214504 | 56 | 212 | 3.0 | 12.0 | 0.00 | 0.02 | 0.02 | 66 | 1006.0 |
| 20260505213007 | 56 | 229 | 5.0 | 9.0 | 0.00 | 0.02 | 0.02 | 66 | 1006.1 |
| 20260505211504 | 56 | 221 | 4.0 | 11.0 | 0.00 | 0.02 | 0.02 | 66 | 1006.1 |
| 20260505210008 | 56 | 225 | 4.0 | 11.0 | 0.00 | 0.02 | 0.02 | 67 | 1005.9 |
| 20260505204504 | 56 | 227 | 4.0 | 12.0 | 0.00 | 0.02 | 0.02 | 68 | 1006.1 |
| 20260505203008 | 55 | 215 | 4.0 | 11.0 | 0.00 | 0.02 | 0.02 | 67 | 1006.1 |
| 20260505201505 | 56 | 227 | 3.0 | 10.0 | 0.00 | 0.02 | 0.02 | 69 | 1006.2 |
| 20260505194504 | 55 | 229 | 4.0 | 13.0 | 0.00 | 0.02 | 0.02 | 68 | 1006.4 |
| 20260505193009 | 55 | 231 | 5.0 | 10.0 | 0.00 | 0.02 | 0.02 | 70 | 1006.2 |
| 20260505191504 | 55 | 228 | 4.0 | 12.0 | 0.00 | 0.02 | 0.02 | 70 | 1006.4 |
| 20260505184505 | 54 | 216 | 2.0 | 9.0 | 0.00 | 0.02 | 0.02 | 73 | 1006.2 |
| 20260505183008 | 53 | 221 | 2.0 | 12.0 | 0.00 | 0.02 | 0.02 | 76 | 1006.0 |
| 20260505180007 | 53 | 230 | 3.0 | 7.0 | 0.00 | 0.02 | 0.02 | 75 | 1005.9 |
| 20260505174504 | 52 | 219 | 2.0 | 7.0 | 0.00 | 0.02 | 0.02 | 75 | 1006.2 |
| 20260505173007 | 51 | 223 | 2.0 | 6.0 | 0.00 | 0.02 | 0.02 | 75 | 1006.1 |
| 20260505171504 | 50 | 296 | 1.0 | 4.0 | 0.00 | 0.02 | 0.02 | 77 | 1005.8 |
| 20260505170007 | 49 | 300 | 1.0 | 3.0 | 0.00 | 0.02 | 0.02 | 78 | 1005.9 |
| 20260505164504 | 49 | 300 | 1.0 | 4.0 | 0.01 | 0.02 | 0.02 | 76 | 1006.0 |
| 20260505161504 | 48 | 300 | 0.0 | 2.0 | 0.02 | 0.02 | 0.02 | 81 | 1005.9 |
| 20260505153007 | 49 | 301 | 1.0 | 2.0 | 0.01 | 0.01 | 0.01 | 75 | 1006.1 |
| 20260505151504 | 49 | 301 | 1.0 | 3.0 | 0.00 | 0.00 | 0.00 | 72 | 1005.9 |
| 20260505123008 | 49 | 320 | 4.0 | 9.0 | 0.00 | 0.00 | 0.00 | 70 | 1003.6 |
| 20260505121504 | 49 | 309 | 4.0 | 9.0 | 0.00 | 0.00 | 0.00 | 73 | 1003.6 |
| 20260505120007 | 49 | 328 | 4.0 | 9.0 | 0.00 | 0.00 | 0.00 | 73 | 1003.0 |
| 20260505114505 | 49 | 333 | 4.0 | 10.0 | 0.00 | 0.00 | 0.00 | 71 | 1003.1 |
| 20260505113007 | 49 | 340 | 3.0 | 9.0 | 0.00 | 0.00 | 0.00 | 75 | 1002.5 |
| 20260505111504 | 49 | 335 | 3.0 | 10.0 | 0.00 | 0.00 | 0.00 | 76 | 1002.3 |